Station 42019 (LLNR 1285) - FREEPORT, TX - 60 NM South of Freeport, TX Image indicating link to RSS feed of recent meteorological observations for station 42019


Conditions at 42019 as of
(5:40 pm CDT)
2240 GMT on 05/18/2024:
     

Click on the graph icon in the table below to see a time series plot of the last five days of that observation.

5-day plot - Wind Direction Wind Direction (WDIR): E ( 80 deg true )
5-day plot - Wind Speed Wind Speed (WSPD): 9.7 kts
5-day plot - Wind Gust Wind Gust (GST): 13.6 kts
5-day plot - Atmospheric Pressure Atmospheric Pressure (PRES):29.83 in
5-day plot - Water Temperature Water Temperature (WTMP): 82.0 °F
5-day plot - Wind Speed at 10 Meters Wind Speed at 10 meters (WSPD10M): 11.7 kts
5-day plot - Wind Speed at 20 Meters Wind Speed at 20 meters (WSPD20M): 11.7 kts
5-day plot -  Wind Speed, Wind Gust and Atmospheric Pressure Combined plot of Wind Speed, Gust, and Air Pressure
Supplemental Measurements
Highest 1-minute Wind Speed
Time (CDT)5-day plot - 1-Minute Wind Speed WSPD 5-day plot - 1-Minute Wind Direction WDIR
5:35 pm 11.7 kts-
Previous observations
TIME
(CDT)
5-day plot - Wind Direction
WDIR
 
5-day plot - Wind Speed
WSPD
kts
5-day plot - Wind Gust
GST
kts
5-day plot - Wave Height
WVHT
ft
5-day plot - Dominant Wave Period
DPD
sec
5-day plot - Average Wave Period
APD
sec
5-day plot - Mean Wave Direction
MWD
 
5-day plot - Atmospheric Pressure
PRES
in
5-day plot - Pressure Tendency
PTDY
in
5-day plot - Air Temperature
ATMP
°F
5-day plot - Water Temperature
WTMP
°F
5-day plot - Dew Point
DEWP
°F
5-day plot - Salinity
SAL
psu
5-day plot - Visibility
VIS
nmi
5-day plot - Tide (above MLLW)
TIDE
ft
2024-05-18 05:30 pm E 9.7 11.7----29.83-- 82.0----
2024-05-18 05:20 pm E 9.7 13.6 5.2 75.4 SE29.83-- 82.2----
2024-05-18 05:10 pm E 9.7 11.7 5.2-5.4 SE29.84-- 82.0----
2024-05-18 05:00 pm E 9.7 11.7----29.84-0.03- 82.0----
2024-05-18 04:50 pm E 9.7 13.6 5.2 75.3 E29.84-- 82.0----
2024-05-18 04:40 pm E 9.7 13.6 5.2-5.3 E29.84-- 82.2----
2024-05-18 04:30 pm E 9.7 13.6----29.84-- 82.0----
2024-05-18 04:20 pm E 9.7 13.6 5.2 65.3ESE29.84-- 82.0----
2024-05-18 04:10 pm E 11.7 13.6 5.2-5.3ESE29.84-- 82.0----
2024-05-18 04:00 pm E 11.7 13.6----29.84-0.03- 82.0----
2024-05-18 03:50 pm E 11.7 15.5 4.9 75.3ESE29.85-- 82.0----
2024-05-18 03:40 pm E 11.7 15.5----29.85-- 82.0----
2024-05-18 03:30 pm E 11.7 15.5----29.85-- 81.9----
2024-05-18 03:20 pmESE 11.7 13.6 5.2 75.2 E29.85-- 81.9----
2024-05-18 03:10 pm E 11.7 15.5 5.2-5.2 E29.86-- 81.9----
2024-05-18 03:00 pm E 11.7 15.5----29.86-0.02- 81.9----
2024-05-18 02:50 pm E 11.7 15.5 5.6 75.4ESE29.86-- 81.9----
2024-05-18 02:40 pmESE 13.6 15.5----29.86-- 81.9----
2024-05-18 02:30 pm E 11.7 15.5----29.86-- 81.7----
2024-05-18 02:20 pm E 13.6 15.5 5.6 85.3ESE29.86-- 81.7----
2024-05-18 02:10 pm E 13.6 15.5 5.6-5.3ESE29.87-- 81.7----
2024-05-18 02:00 pm E 11.7 15.5----29.87-0.01- 81.7----
2024-05-18 01:50 pm E 13.6 17.5 4.9 65.1ESE29.87-- 81.7----
2024-05-18 01:40 pm E 13.6 17.5----29.87-- 81.7----
2024-05-18 01:30 pm E 13.6 17.5----29.87-- 81.5----
2024-05-18 01:20 pm E 13.6 17.5 5.2 75.1ESE29.87-- 81.5----
2024-05-18 01:10 pm E 13.6 17.5 5.2-5.1ESE29.87-- 81.5----
2024-05-18 01:00 pm E 13.6 17.5----29.87+0.00- 81.5----
2024-05-18 12:50 pm E 13.6 17.5 5.6 65.1 E29.87-- 81.5----
2024-05-18 12:40 pm E 15.5 17.5----29.87-- 81.5----
2024-05-18 12:30 pm E 15.5 17.5----29.87-- 81.3----
2024-05-18 12:20 pm E 15.5 19.4 5.6 75.1ESE29.88-- 81.3----
2024-05-18 12:10 pm E 15.5 17.5----29.88-- 81.3----
2024-05-18 12:00 pm E 15.5 19.4----29.88+0.02- 81.3----
2024-05-18 11:50 am E 15.5 19.4 5.6 85.0 SE29.88-- 81.3----
2024-05-18 11:40 am E 15.5 19.4 5.6-5.0 SE29.88-- 81.3----
2024-05-18 11:30 am E 15.5 19.4----29.88-- 81.3----
2024-05-18 11:20 am E 15.5 19.4 5.2 75.0ESE29.88-- 81.3----
2024-05-18 11:10 am E 17.5 21.4 5.2-5.0ESE29.88-- 81.3----
2024-05-18 11:00 am E 17.5 19.4----29.88+0.05- 81.3----
2024-05-18 10:50 am E 15.5 19.4 4.6 74.7ESE29.88-- 81.3----
2024-05-18 10:40 am E 15.5 19.4----29.88-- 81.3----
2024-05-18 10:30 am E 15.5 19.4----29.87-- 81.3----
2024-05-18 10:20 am E 15.5 19.4 4.6 54.7 E29.87-- 81.1----
2024-05-18 10:10 am E 15.5 19.4 4.6-4.7 E29.87-- 81.3----
2024-05-18 10:00 amENE 15.5 19.4----29.87+0.05- 81.1----
2024-05-18 09:50 amENE 15.5 19.4 4.3 64.8 E29.87-- 81.1----
2024-05-18 09:40 amENE 15.5 19.4----29.86-- 81.1----
2024-05-18 09:30 amENE 15.5 19.4----29.86-- 81.1----
2024-05-18 09:20 amENE 15.5 19.4 3.9 74.4ESE29.85-- 81.1----
2024-05-18 09:10 amENE 15.5 17.5 3.9-4.4ESE29.85-- 81.1----
2024-05-18 09:00 amENE 15.5 17.5----29.85+0.06- 81.1----
2024-05-18 08:50 amENE 15.5 19.4 4.3 64.6 E29.85-- 81.1----
2024-05-18 08:40 amENE 15.5 19.4----29.84-- 81.1----
2024-05-18 08:30 amENE 15.5 19.4----29.83-- 81.1----
2024-05-18 08:20 amENE 15.5 19.4 4.3 64.7ESE29.83-- 81.1----
2024-05-18 08:10 amENE 15.5 17.5 4.3-4.7ESE29.83-- 81.1----
2024-05-18 08:00 am E 15.5 17.5----29.83+0.04- 81.1----
2024-05-18 07:50 am E 15.5 17.5 3.9 74.5ESE29.83-- 81.1----
2024-05-18 07:40 am E 15.5 19.4----29.82-- 81.1----
2024-05-18 07:30 amENE 13.6 17.5----29.83-- 81.1----
2024-05-18 07:20 amENE 15.5 17.5 3.9 64.6 E29.82-- 81.1----
2024-05-18 07:10 am E 15.5 17.5 3.9-4.6 E29.82-- 81.1----
2024-05-18 07:00 amENE 13.6 17.5----29.82+0.03- 81.1----
2024-05-18 06:50 amENE 13.6 15.5 4.3 64.6ESE29.81-- 81.1----
2024-05-18 06:40 amENE 13.6 17.5----29.79-- 81.1----
2024-05-18 06:30 am E 13.6 17.5----29.79-- 81.1----
2024-05-18 06:20 am E 13.6 17.5 4.3 64.7 E29.79-- 81.1----
2024-05-18 06:10 am E 13.6 17.5 4.3-4.7 E29.79-- 81.1----
2024-05-18 06:00 amENE 13.6 17.5----29.80+0.01- 81.1----
2024-05-18 05:50 amENE 13.6 17.5 4.3 64.6ESE29.79-- 81.1----
2024-05-18 05:40 amENE 13.6 15.5 4.3-4.6ESE29.79-- 81.1----
2024-05-18 05:30 amENE 13.6 17.5----29.78-- 81.1----
2024-05-18 05:20 amENE 13.6 17.5 4.3 64.6 E29.78-- 81.1----
2024-05-18 05:10 amENE 13.6 17.5 4.3-4.6 E29.79-- 81.1----
2024-05-18 05:00 amENE 13.6 17.5----29.79-0.01- 81.1----
2024-05-18 04:50 am E 11.7 15.5 3.9 74.6ESE29.80-- 81.1----
2024-05-18 04:40 am E 13.6 15.5 3.9-4.6ESE29.80-- 81.1----
2024-05-18 04:30 am E 11.7 15.5----29.80-- 81.1----
2024-05-18 04:20 am E 11.7 17.5 3.9 54.6 E29.81-- 81.1----
2024-05-18 04:10 am E 13.6 17.5 3.9-4.6 E29.78-- 81.1----
2024-05-18 04:00 amENE 13.6 17.5----29.78-0.03- 81.1----
2024-05-18 03:50 am E 13.6 17.5 4.3 54.6ENE29.79-- 81.1----
2024-05-18 03:40 am E 13.6 15.5----29.79-- 81.1----
2024-05-18 03:30 am E 13.6 17.5----29.79-- 81.1----
2024-05-18 03:20 amENE 13.6 15.5 3.9 54.6ENE29.80-- 81.1----
2024-05-18 03:10 amENE 13.6 15.5 3.9-4.6ENE29.79-- 81.1----
2024-05-18 03:00 amENE 15.5 17.5----29.79-0.02- 81.1----
2024-05-18 02:50 amENE 13.6 17.5 3.9 64.5ESE29.79-- 81.1----
2024-05-18 02:40 amENE 13.6 17.5 3.9-4.5ESE29.80-- 81.1----
2024-05-18 02:30 amENE 13.6 17.5----29.80-- 81.1----
2024-05-18 02:20 amENE 15.5 17.5 4.6 54.7 E29.80-- 81.1----
2024-05-18 02:10 am NE 15.5 17.5 4.6-4.7 E29.81-- 81.1----
2024-05-18 02:00 am NE 15.5 19.4----29.81+0.02- 81.1----
2024-05-18 01:50 am NE 15.5 19.4 4.6 64.8ESE29.81-- 81.1----
2024-05-18 01:40 amENE 13.6 17.5 4.6-4.8ESE29.81-- 81.3----
2024-05-18 01:30 amENE 13.6 15.5----29.81-- 81.3----
2024-05-18 01:20 am NE 13.6 17.5 3.9 54.6 E29.81-- 81.3----
2024-05-18 01:10 am NE 13.6 15.5----29.81-- 81.3----
2024-05-18 01:00 am NE 13.6 17.5----29.81+0.06- 81.3----
2024-05-18 12:50 am NE 13.6 15.5 4.3 64.8 E29.82-- 81.3----
2024-05-18 12:40 am NE 13.6 17.5----29.82-- 81.3----
2024-05-18 12:30 am NE 13.6 15.5----29.81-- 81.3----
2024-05-18 12:20 am NE 13.6 15.5 4.9 64.9 SE29.81-- 81.3----
2024-05-18 12:10 am NE 13.6 17.5 4.9-4.9 SE29.81-- 81.3----
2024-05-18 12:00 am NE 13.6 19.4----29.81+0.08- 81.3----
2024-05-17 11:50 pmENE 15.5 17.5 4.3 64.7 SE29.81-- 81.3----
2024-05-17 11:40 pmENE 13.6 17.5----29.81-- 81.3----
2024-05-17 11:30 pmENE 13.6 17.5----29.80-- 81.3----
2024-05-17 11:20 pm E 13.6 17.5 4.6 64.9ESE29.80-- 81.3----
2024-05-17 11:10 pm E 13.6 19.4 4.6-4.9ESE29.79-- 81.3----
2024-05-17 11:00 pm E 15.5 19.4----29.79+0.07- 81.3----
2024-05-17 10:50 pmENE 15.5 19.4 4.3 64.7ESE29.79-- 81.3----
2024-05-17 10:40 pmENE 15.5 19.4----29.79-- 81.3----
2024-05-17 10:30 pmENE 15.5 19.4----29.78-- 81.3----
2024-05-17 10:20 pm E 15.5 19.4 3.9 74.7 SE29.78-- 81.3----
2024-05-17 10:10 pm E 15.5 19.4 3.9-4.7 SE29.76-- 81.3----
2024-05-17 10:00 pm E 15.5 19.4----29.75+0.04- 81.3----
2024-05-17 09:50 pm E 15.5 17.5 4.3 74.8 SE29.75-- 81.3----
2024-05-17 09:40 pm E 13.6 17.5----29.75-- 81.3----
2024-05-17 09:30 pm E 13.6 17.5----29.75-- 81.3----
2024-05-17 09:20 pm E 13.6 17.5 3.9 64.8ESE29.74-- 81.3----
2024-05-17 09:10 pmENE 13.6 17.5 3.9-4.8ESE29.73-- 81.3----
2024-05-17 09:00 pm E 13.6 17.5----29.73+0.00- 81.3----
2024-05-17 08:50 pmENE 13.6 15.5 3.9 74.7 SE29.73-- 81.3----
2024-05-17 08:40 pmENE 13.6 17.5----29.73-------
2024-05-17 08:30 pmENE 13.6 17.5----29.72-- 81.3----
2024-05-17 08:20 pmENE 13.6 15.5 4.3 74.8SSE29.72-- 81.3----
2024-05-17 08:10 pmENE 13.6 17.5 4.3-4.8SSE29.72-- 81.3----
2024-05-17 08:00 pmENE 15.5 19.4----29.72-0.02- 81.3----
2024-05-17 07:50 pmENE 15.5 17.5 3.9 64.7ESE29.71-- 81.3----
2024-05-17 07:40 pmENE 15.5 19.4----29.71-- 81.3----
2024-05-17 07:30 pmENE 15.5 19.4----29.71-- 81.3----
2024-05-17 07:20 pmENE 15.5 17.5 3.9 64.6 E29.71-- 81.3----
2024-05-17 07:10 pmENE 15.5 17.5 3.9-4.6 E29.71-- 81.3----
2024-05-17 07:00 pmENE 15.5 17.5----29.72-0.03- 81.1----
2024-05-17 06:50 pmENE 13.6 17.5 4.3 64.8ESE29.72-- 81.1----
2024-05-17 06:40 pmENE 13.6 17.5----29.73-- 81.1----
2024-05-17 06:30 pm NE 15.5 17.5----29.73-- 81.1----
2024-05-17 06:20 pm NE 13.6 17.5 3.9 74.6ESE29.73-- 81.1----
2024-05-17 06:10 pm NE 13.6 17.5 3.9-4.6ESE29.73-- 81.1----
2024-05-17 06:00 pm NE 15.5 17.5----29.72-0.01- 81.1----
2024-05-17 05:50 pm NE 13.6 17.5 3.6 64.5ESE29.72-- 81.1----

Detailed Wave Summary
for 42019 as of (5:10 pm CDT)
2210 GMT on 05/18/2024:

These wave data are displayed in rounded times.

     

Click on the graph icon in the table below to see a time series plot of the last five days of that observation.

5-day plot - Significant Wave Height Significant Wave Height (WVHT): 5.2 ft
5-day plot - Swell Height Swell Height (SwH): 4.6 ft
5-day plot - Swell Period Swell Period (SwP): 7.1 sec
5-day plot - Swell Direction Swell Direction (SwD): SE
5-day plot - Wind Wave Height Wind Wave Height (WWH): 2.3 ft
5-day plot - Wind Wave Period Wind Wave Period (WWP): 4.0 sec
5-day plot - Wind Wave Direction Wind Wave Direction (WWD): E
5-day plot - Wave Steepness Wave Steepness (STEEPNESS): STEEP
5-day plot - Average Wave Period Average Wave Period (APD): 5.4 sec
Previous observations
TIME
(CDT)
5-day plot - Wave Height
WVHT
ft
5-day plot - Swell Height
SwH
ft
5-day plot - Swell Period
SwP
sec
5-day plot - Swell Direction
SwD
 
5-day plot - Wind Wave Height
WWH
ft
5-day plot - Wind Wave Period
WWP
sec
5-day plot - Wind Wave Direction
WWD
 
5-day plot - Wave Steepness
STEEPNESS
 
5-day plot - Average Wave Period
APD
sec
2024-05-18 04:40 pm 5.2 4.6 6.7 E 2.3 4.8 E STEEP 5.3
2024-05-18 04:10 pm 5.2 4.3 6.2ESE 3.0 5.3 ESE STEEP 5.3
2024-05-18 03:40 pm 4.9 3.9 7.1ESE 3.3 5.3 E STEEP 5.3
2024-05-18 03:10 pm 5.2 3.9 6.7 E 3.3 5.0 E STEEP 5.2
2024-05-18 02:40 pm 5.6 3.9 7.1ESE 3.9 5.0 E STEEP 5.4
2024-05-18 02:10 pm 5.6 3.9 7.7ESE 3.9 5.3 E STEEP 5.3
2024-05-18 01:40 pm 4.9 2.6 8.3ESE 4.3 6.2 ESE STEEP 5.1
2024-05-18 01:10 pm 5.2 3.3 7.1ESE 4.3 5.9 E STEEP 5.1
2024-05-18 12:40 pm 5.6 2.6 8.3 SE 4.9 6.2 EVERY_STEEP 5.1
2024-05-18 12:10 pm 5.6 2.6 8.3 SE 4.9 7.1 ESE STEEP 5.1
2024-05-18 11:40 am 5.6 2.3 8.3 SE 4.9 6.2 ESE AVERAGE 5.0
2024-05-18 11:10 am 5.2 0.0-- 5.2 6.7 ESE STEEP 5.0
2024-05-18 10:40 am 4.6 1.6 8.3 SE 4.3 6.7 ESE STEEP 4.7
2024-05-18 10:10 am 4.6 1.3 9.1 SE 4.6 5.3 EVERY_STEEP 4.7
2024-05-18 09:40 am 4.3 1.3 9.1SSE 4.3 5.6 EVERY_STEEP 4.8
2024-05-18 09:10 am 3.9 1.3 9.1 SE 3.6 6.7 ESE STEEP 4.4
2024-05-18 08:40 am 4.3 1.0 10.0 SE 3.9 6.2 E STEEP 4.6
2024-05-18 08:10 am 4.3 0.0-- 4.3 6.2 ESE STEEP 4.7
2024-05-18 07:40 am 3.9 0.0-- 3.9 6.7 ESE STEEP 4.5
2024-05-18 07:10 am 3.9 0.0-- 3.9 5.9 E STEEP 4.6
2024-05-18 06:40 am 4.3 0.0-- 4.3 6.2 ESE STEEP 4.6
2024-05-18 06:10 am 4.3 0.0-- 4.3 5.6 EVERY_STEEP 4.7
2024-05-18 05:40 am 4.3 1.0 10.8 W 4.3 6.2 ESE STEEP 4.6
2024-05-18 05:10 am 4.3 1.3 9.1 SW 3.9 5.6 EVERY_STEEP 4.6
2024-05-18 04:40 am 3.9 0.0-- 3.9 6.7 ESE STEEP 4.6
2024-05-18 04:10 am 3.9 1.3 7.1ESE 3.9 5.3 EVERY_STEEP 4.6
2024-05-18 03:40 am 4.3 0.0-- 4.3 4.8 ENEVERY_STEEP 4.6
2024-05-18 03:10 am 3.9 0.0-- 3.9 5.0 ENEVERY_STEEP 4.6
2024-05-18 02:40 am 3.9 0.0-- 3.9 5.9 ESE STEEP 4.5
2024-05-18 02:10 am 4.6 1.0 7.7 SE 4.3 5.0 EVERY_STEEP 4.7
2024-05-18 01:40 am 4.6 0.0-- 4.6 6.2 ESE STEEP 4.8
2024-05-18 01:10 am 3.9 1.6 6.7ESE 3.6 5.0 EVERY_STEEP 4.6
2024-05-18 12:40 am 4.3 1.6 12.9SSW 3.9 6.2 E STEEP 4.8
2024-05-18 12:10 am 4.9 2.3 7.1 SE 4.3 6.2 SE STEEP 4.9
2024-05-17 11:40 pm 4.3 0.0-- 4.3 6.2 SE STEEP 4.7
2024-05-17 11:10 pm 4.6 0.0-- 4.6 5.9 ESE STEEP 4.9
2024-05-17 10:40 pm 4.3 1.0 12.1NNE 3.9 6.2 ESE STEEP 4.7
2024-05-17 10:10 pm 3.9 0.0-- 3.9 7.1 SE AVERAGE 4.7
2024-05-17 09:40 pm 4.3 1.3 11.4 NE 3.9 6.7 SE STEEP 4.8
2024-05-17 09:10 pm 3.9 0.0-- 3.9 6.2 ESE STEEP 4.8
2024-05-17 08:40 pm 3.9 0.0-- 3.9 6.7 SE STEEP 4.7
2024-05-17 08:10 pm 4.3 2.3 7.1SSE 3.3 4.8 ENE AVERAGE 4.8
2024-05-17 07:40 pm 3.9 0.0-- 3.9 5.6 ESEVERY_STEEP 4.7
2024-05-17 07:10 pm 3.9 0.0-- 3.9 5.9 E STEEP 4.6
2024-05-17 06:40 pm 4.3 2.0 7.7 SE 3.6 6.2 ESE STEEP 4.8
2024-05-17 06:10 pm 3.9 0.0-- 3.9 6.7 ESE STEEP 4.6

Plot of wave energy versus frequency (and period)